Theta_e
298 287 287 287 288 290 291 292 292 292 290 290 289 287 287 287 288 291 293 294 293 291 289 290 290 290 291 292 294 295 294 293 294 295 297 297 297 297 297 297 297 298 301 304 304 304 305 308 310 311 311 311 309 309 310 310 309 309 309 308 308 309 310 311 311 310 308 307 305 304 308 307 305 305 305 307 308 310 315 316 316 316 317 319 319 317
294 289 289 291 293 293 293 292 290 290 290 290 288 288 286 288 289 290 293 294 293 292 286 287 288 290 291 293 293 294 293 295 296 296 295 296 296 297 296 297 297 299 299 302 302 303 303 306 307 308 309 308 308 307 309 309 309 308 308 309 308 308 310 310 311 311 310 309 309 308 306 303 304 304 306 306 306 307 309 313 314 315 316 317 317 315
288 287 290 294 293 292 291 291 290 291 290 288 287 286 286 286 289 293 293 294 293 291 288 287 288 291 293 294 294 293 295 297 297 297 297 297 297 297 296 297 298 297 299 299 300 301 304 305 306 307 307 308 310 308 307 307 307 307 307 308 307 309 309 309 310 310 310 308 306 306 304 305 300 303 307 307 306 305 306 308 311 313 314 315 315 314
286 287 293 294 292 292 291 290 290 289 289 287 285 283 284 285 290 286 289 292 294 291 289 287 289 292 294 295 295 297 296 296 296 296 297 298 298 299 298 297 298 298 299 299 300 302 302 304 305 304 306 307 306 305 305 306 307 307 306 306 307 308 309 308 308 308 308 308 306 306 306 304 304 301 302 303 303 304 304 304 306 309 313 313 314 313
286 291 294 294 293 292 291 290 288 285 287 287 287 284 285 290 291 288 289 292 292 290 292 290 288 287 289 291 292 294 296 296 297 296 297 298 298 299 298 298 297 299 299 299 299 300 301 302 304 305 305 305 305 305 305 306 307 308 307 306 307 307 307 307 306 307 308 307 304 303 302 302 301 302 302 302 301 303 303 303 304 306 310 312 312 312
289 294 296 294 292 292 290 289 289 287 286 285 288 290 289 289 291 292 290 288 283 280 289 289 281 278 282 289 290 294 293 293 293 295 296 298 298 296 297 299 298 299 298 300 302 302 302 303 302 301 303 304 305 305 306 306 307 307 306 306 307 307 306 306 306 307 307 307 306 304 303 303 304 302 301 302 303 301 302 303 304 303 306 310 312 312
289 295 295 293 291 290 289 288 289 288 283 284 286 294 291 290 290 289 288 285 278 279 286 288 281 278 282 287 288 291 291 294 293 293 296 297 297 295 298 299 299 300 300 300 301 300 301 300 301 302 303 304 305 305 305 305 306 306 306 306 306 306 306 305 305 306 305 306 306 306 307 307 306 305 303 305 304 303 303 303 302 303 303 307 310 311
292 294 292 292 291 290 288 288 291 290 285 284 290 293 291 291 291 291 288 286 281 283 287 290 285 281 281 285 290 292 292 292 293 295 296 296 296 297 297 298 298 300 298 300 300 301 301 302 303 303 304 304 305 305 304 305 305 306 305 306 306 305 305 305 305 303 305 306 306 306 307 307 306 306 304 304 304 303 302 302 302 301 301 303 305 307
294 291 291 292 289 287 288 288 293 291 286 287 294 292 291 292 291 288 287 285 285 283 282 281 288 283 279 283 287 289 290 291 293 295 295 294 295 296 296 297 297 299 299 300 300 300 301 302 302 303 303 305 304 304 304 305 305 305 305 305 305 304 304 304 304 302 303 305 306 306 307 306 307 307 304 303 302 302 301 301 300 300 299 300 301 303
295 292 293 293 290 288 290 292 290 292 291 293 292 292 292 290 290 287 282 287 281 278 278 284 285 278 283 283 286 287 287 289 293 295 295 295 294 294 295 296 299 298 298 299 300 300 301 302 302 303 303 303 304 304 304 304 304 304 304 304 304 303 304 304 303 302 303 304 304 306 306 306 306 305 303 303 301 301 300 299 298 299 297 298 299 300
294 296 296 294 291 291 290 292 292 293 293 293 291 290 288 286 284 282 281 279 278 276 276 286 287 283 279 283 284 287 288 291 293 292 292 292 293 296 299 298 298 299 298 298 298 298 298 299 300 300 302 302 301 301 303 303 304 303 304 304 303 303 303 303 303 302 302 303 304 306 306 307 306 305 303 302 300 299 299 298 297 298 297 296 297 297
293 292 294 293 295 293 292 291 292 292 293 293 289 283 281 280 279 278 279 277 276 274 276 283 288 284 277 278 285 288 288 290 292 292 295 291 293 297 300 298 298 297 298 297 297 297 297 298 298 298 300 300 301 301 302 302 303 303 303 303 303 302 302 301 301 302 302 303 303 306 307 307 307 306 304 302 300 299 298 298 297 297 296 295 296 296
287 289 291 294 295 295 290 290 290 287 288 289 286 284 278 275 276 274 276 276 274 275 278 280 284 283 283 284 288 288 290 290 291 294 292 291 294 296 299 297 297 295 295 296 295 295 296 298 298 298 298 298 300 302 302 302 302 302 302 302 302 301 300 299 300 301 301 301 303 304 306 307 307 307 305 303 301 299 299 298 296 295 295 294 294 295
283 284 291 291 292 294 292 289 285 285 287 287 286 280 277 273 273 270 269 273 273 277 281 284 285 283 282 285 292 293 294 293 291 291 293 296 296 293 297 296 295 295 295 295 295 295 296 296 297 297 298 299 300 300 301 301 301 301 301 301 301 301 299 298 299 300 300 301 302 303 305 307 307 307 305 304 302 300 300 299 297 296 296 294 295 294
278 279 286 289 287 292 293 292 291 286 288 290 286 286 282 276 273 268 272 273 275 275 280 281 280 280 279 285 287 292 292 292 292 293 293 295 294 294 294 294 294 294 293 293 295 296 297 297 296 298 298 299 300 300 300 300 301 301 301 300 300 300 298 298 299 299 300 300 301 302 304 306 306 306 304 304 303 301 300 299 298 297 296 295 295 295
284 281 284 293 291 294 293 293 291 288 287 286 287 286 280 281 278 274 271 272 273 274 275 277 280 279 284 286 290 291 290 292 294 296 295 295 296 295 295 295 296 296 295 295 295 295 295 296 296 296 297 298 299 300 300 300 300 301 301 300 301 301 299 298 298 299 299 299 300 301 302 305 303 303 304 303 302 302 302 300 299 297 297 296 296 295
282 280 288 291 292 293 292 292 294 289 282 283 288 284 283 285 284 278 276 280 275 273 276 275 281 283 283 288 292 294 291 292 291 292 293 294 296 294 294 295 296 296 295 296 296 296 296 294 295 297 297 297 297 298 300 301 301 301 301 300 299 300 299 298 298 299 299 299 299 300 301 304 302 300 301 302 301 301 301 301 300 298 297 296 295 293
283 279 287 288 288 291 291 292 293 291 289 287 282 285 288 290 287 281 275 273 274 273 275 276 279 279 277 280 285 288 290 292 291 293 295 294 294 293 294 294 295 295 297 296 296 296 296 297 297 297 297 297 299 300 300 300 300 301 301 301 300 299 298 297 298 298 298 299 299 299 300 302 304 301 300 301 300 301 300 299 299 298 296 295 294 293
288 281 285 286 288 289 292 293 293 292 292 286 283 289 289 281 280 281 275 273 270 268 272 274 277 280 281 284 285 287 288 290 292 292 292 292 292 294 295 295 293 294 295 297 296 295 295 296 296 296 297 297 298 299 300 300 300 300 300 300 300 300 300 298 298 298 298 299 300 300 300 302 303 302 300 300 300 299 299 299 298 297 297 295 293 293
288 282 282 286 288 289 289 289 285 286 292 292 291 291 288 282 276 279 280 274 275 270 269 274 276 280 283 283 285 289 290 291 292 290 292 293 293 295 295 295 295 295 297 296 295 295 296 295 295 295 296 297 297 297 298 299 299 299 300 299 299 299 299 297 297 297 297 298 299 299 300 301 302 301 301 300 299 298 298 298 297 297 296 294 293 293
286 284 277 283 286 288 284 286 285 288 287 286 286 284 287 285 286 281 283 278 275 267 268 269 274 278 281 287 288 290 291 291 292 293 293 293 294 294 295 295 295 296 296 296 297 296 296 295 293 293 294 296 294 295 297 298 299 299 299 299 299 299 298 298 297 297 297 297 298 298 298 300 300 300 300 300 300 299 298 298 297 296 295 292 291 291
285 283 280 283 283 283 284 287 290 291 294 291 290 287 290 285 282 276 277 281 277 278 274 271 276 283 285 290 291 290 291 291 292 292 293 292 293 294 293 293 296 297 297 297 297 295 295 293 293 291 291 291 292 294 295 298 298 298 298 299 299 299 299 298 297 297 297 296 297 297 298 298 299 300 299 299 299 298 298 297 296 295 292 291 291 291
289 282 282 279 283 287 286 290 290 291 292 289 289 286 290 286 284 278 275 275 279 279 275 275 273 283 290 290 292 291 291 291 291 292 292 293 293 293 295 296 297 298 298 298 296 295 293 292 293 292 292 293 294 296 294 295 298 299 298 298 298 298 299 299 298 297 297 296 296 296 297 297 298 298 297 297 296 296 297 297 295 293 292 291 290 290
293 281 279 277 284 287 289 289 289 289 292 290 289 285 286 286 284 284 278 278 281 275 279 278 274 283 290 290 290 289 288 289 291 291 295 295 294 294 295 296 297 298 296 293 292 293 293 289 289 290 291 294 294 294 295 297 297 298 298 298 297 297 298 298 297 296 296 296 295 295 295 295 296 296 296 296 296 295 295 295 294 292 292 291 290 289
286 282 284 276 274 279 280 283 287 286 286 280 282 287 288 288 287 284 282 278 280 280 282 279 276 283 290 289 289 287 289 291 291 291 292 295 294 295 296 296 295 294 294 294 294 294 292 289 290 293 293 294 294 294 295 296 297 297 297 296 297 297 297 297 296 295 295 294 293 293 294 294 294 295 295 295 296 294 294 294 293 291 291 290 289 289
289 284 284 277 276 274 271 275 277 279 286 284 279 285 289 288 287 286 283 281 280 283 281 279 282 287 290 288 292 288 285 292 291 290 292 293 294 296 297 296 295 294 295 295 294 291 293 294 291 290 291 293 293 294 294 295 296 296 296 297 296 296 295 295 294 295 294 293 293 293 293 294 294 294 295 295 295 294 293 293 292 290 290 290 289 288
283 284 287 285 283 281 282 283 284 286 283 283 285 287 288 289 290 289 285 282 282 283 276 283 286 287 288 289 289 291 285 289 291 289 293 295 294 292 291 293 294 295 296 296 295 294 290 289 292 293 292 293 292 292 294 294 295 296 296 296 295 296 295 294 293 293 293 293 293 293 293 294 294 294 295 295 294 294 292 291 291 290 290 289 289 288
283 284 286 287 286 287 287 285 287 290 287 288 287 286 289 289 288 287 285 284 288 279 281 286 286 285 288 289 289 289 288 288 289 290 292 292 292 293 293 293 294 294 294 294 294 297 297 297 294 293 293 291 292 292 292 294 295 296 296 296 295 294 293 294 292 292 292 292 293 293 294 294 294 293 293 294 293 293 291 290 290 290 290 288 288 288
286 284 286 285 285 287 287 286 288 289 289 289 288 288 287 289 288 286 287 289 287 284 283 287 287 286 289 290 291 291 292 294 294 293 293 293 293 291 293 295 296 295 295 295 296 296 296 296 297 296 294 293 290 291 291 291 292 292 293 294 294 292 293 292 292 293 292 292 292 294 294 293 293 293 292 291 292 291 290 289 289 290 289 288 288 288
289 285 287 287 286 287 287 286 288 288 286 286 287 288 289 288 288 289 289 290 289 286 289 289 287 287 291 289 290 292 292 292 292 292 292 293 294 294 293 293 294 294 294 295 297 298 298 298 296 295 294 292 292 292 291 292 292 292 293 293 293 292 293 291 292 293 292 292 293 293 292 292 292 292 291 290 291 291 290 288 288 288 288 288 288 288
290 286 292 286 285 285 287 287 286 287 286 285 286 287 288 288 289 290 290 290 289 288 289 289 288 288 294 293 291 294 294 293 293 293 295 295 295 294 294 294 294 295 295 296 297 297 296 296 295 294 293 293 293 293 293 293 293 292 291 293 293 293 292 291 292 292 293 293 293 292 290 290 291 290 290 291 290 289 289 288 287 287 287 287 287 287
290 284 285 285 284 285 288 286 283 283 286 287 287 287 287 286 284 286 286 289 287 287 288 288 287 288 293 293 295 292 293 294 294 294 294 295 294 294 295 295 293 293 294 295 296 295 295 294 294 294 294 295 294 293 292 293 292 289 291 293 292 292 290 290 292 293 293 293 292 291 290 290 290 289 290 290 289 289 289 288 287 287 287 287 286 286
288 287 286 284 284 284 288 285 283 285 286 285 286 289 290 287 287 289 290 291 291 291 287 285 287 293 294 291 291 292 291 291 293 295 294 293 292 292 292 293 294 293 294 294 294 294 294 294 293 293 294 293 295 295 295 293 290 291 292 292 292 289 290 291 291 292 292 292 292 291 291 290 290 289 289 289 289 289 288 288 287 287 287 286 287 286
288 288 287 287 284 285 286 283 286 284 279 281 292 294 293 290 289 288 288 289 291 291 290 292 293 294 292 291 291 292 292 293 296 295 294 294 293 293 293 292 293 293 294 294 293 293 292 293 293 292 291 291 292 292 292 291 291 293 291 290 288 289 291 290 291 291 292 291 291 291 290 289 289 289 289 288 288 288 287 287 287 287 287 287 286 286
287 287 286 287 285 284 285 285 282 278 280 291 295 293 294 293 293 292 292 292 292 292 293 293 293 294 295 296 296 295 295 297 294 292 293 293 293 293 292 292 293 292 292 292 293 293 292 292 291 291 292 292 292 291 291 292 289 289 289 288 288 289 290 290 291 290 291 291 291 290 289 289 289 288 288 288 287 287 287 287 287 287 287 287 286 286
287 288 286 285 286 285 282 283 277 278 287 290 291 293 293 292 291 290 288 292 293 293 294 293 295 296 297 297 297 296 295 293 291 290 290 291 292 292 290 292 292 291 292 292 291 291 291 291 290 289 290 290 290 290 290 291 291 289 289 286 288 287 288 289 289 290 290 291 291 290 290 289 288 288 288 287 287 287 287 287 287 287 287 287 286 286
291 288 287 285 288 282 284 283 283 288 287 288 287 286 289 287 287 288 285 288 292 294 294 294 294 295 295 294 293 292 289 290 288 290 289 290 291 290 291 291 291 290 289 290 290 291 291 289 288 289 289 289 290 289 290 290 289 288 288 287 287 286 287 287 289 290 290 290 291 290 290 289 288 287 287 287 286 286 287 287 286 287 287 286 286 286
292 288 288 286 284 287 283 282 282 282 279 285 291 289 294 294 295 294 290 287 289 287 287 290 292 290 287 285 286 286 287 292 286 287 290 290 290 290 290 290 288 288 288 288 288 287 288 288 289 289 288 288 289 289 289 289 289 288 286 287 286 285 286 287 289 290 290 290 291 290 289 289 288 287 287 286 286 286 287 287 287 286 286 286 286 286
292 292 288 287 285 285 283 280 280 279 282 288 287 290 292 294 295 292 289 286 288 284 285 288 287 286 285 284 285 285 290 285 285 286 291 289 289 288 288 290 289 288 288 288 288 289 288 289 287 287 287 287 288 289 288 288 287 287 288 287 286 285 286 288 289 289 290 291 290 289 288 288 288 288 287 287 286 286 286 286 286 286 286 286 286 286
288 288 287 285 284 285 284 282 280 284 283 284 285 285 287 288 294 291 282 282 288 285 285 287 287 287 287 285 285 286 285 282 282 287 287 287 285 286 286 288 288 288 288 288 287 286 286 287 287 287 287 287 287 287 287 287 287 286 287 287 285 286 287 288 289 290 289 289 288 288 288 288 287 287 287 287 287 286 286 286 285 284 284 284 285 286
285 286 287 283 284 284 285 283 285 285 287 286 285 285 288 289 291 285 280 287 286 285 286 287 288 287 286 285 285 284 287 287 287 286 284 284 284 286 285 286 286 286 287 287 287 287 286 286 286 286 286 287 287 287 287 286 286 286 286 286 285 286 288 288 288 287 288 288 288 287 287 287 287 287 287 287 287 286 286 285 285 284 284 284 285 285
285 286 285 286 283 283 284 282 283 285 287 287 286 287 289 291 283 283 287 285 286 285 286 285 286 286 286 285 285 285 286 285 284 283 284 284 284 284 285 284 284 284 285 285 286 286 286 286 286 286 286 285 286 285 285 285 284 285 285 285 285 287 287 286 287 287 286 287 287 287 287 287 287 287 287 287 286 285 285 285 285 285 284 285 284 284
285 284 282 283 285 285 284 282 281 278 287 287 289 289 289 287 286 287 286 284 283 286 285 286 285 286 284 284 284 284 283 281 282 283 284 283 283 284 285 285 285 285 285 285 286 286 284 284 285 285 285 286 286 285 285 283 283 284 284 284 285 286 285 286 286 286 286 286 286 286 287 287 286 287 287 286 286 286 285 284 284 284 284 283 283 283
288 284 283 284 286 281 282 280 281 285 287 288 289 288 286 288 289 286 287 286 284 283 283 285 286 286 284 284 283 282 282 282 283 283 283 283 283 284 284 283 283 284 285 285 283 284 284 284 285 284 285 285 285 285 284 283 284 284 283 284 285 285 285 285 285 284 284 285 285 285 285 285 286 286 286 286 285 285 285 283 283 284 284 283 283 282
288 286 286 283 287 285 284 285 285 285 287 289 289 287 289 289 287 285 286 287 286 285 283 283 285 284 283 284 282 282 281 282 282 283 283 284 283 283 283 283 284 284 284 284 284 284 283 283 283 283 284 285 284 284 283 282 283 283 283 284 284 284 284 284 283 282 283 283 283 283 284 283 284 284 284 284 285 285 284 283 282 282 282 283 283 282
286 287 287 287 285 287 286 286 287 285 287 288 289 290 289 288 285 285 286 287 286 285 283 284 284 284 282 281 282 279 281 282 281 282 283 283 284 284 284 283 283 283 283 283 283 283 283 283 282 282 283 284 284 284 283 282 280 282 284 284 283 283 282 282 281 282 282 282 282 281 279 280 279 280 280 282 284 285 285 284 282 282 282 282 282 282
287 286 287 285 286 286 283 285 285 286 286 287 288 288 287 287 286 285 286 286 286 285 284 284 284 284 283 280 281 282 281 280 281 282 282 283 283 283 283 283 283 283 283 283 283 282 282 281 282 282 282 282 284 284 284 282 282 282 283 282 282 282 281 280 280 281 281 281 280 278 278 278 279 279 279 280 281 282 281 282 282 282 281 282 282 282
284 285 286 283 285 285 283 285 284 284 284 287 288 287 287 287 287 286 286 286 286 286 286 285 284 283 282 281 282 282 281 281 281 282 282 282 282 282 282 283 283 283 283 282 282 281 281 281 281 281 281 282 283 283 283 283 283 282 281 280 281 280 280 281 281 281 279 278 276 278 277 278 281 280 279 280 282 283 282 282 283 283 282 282 282 281
285 287 282 285 285 284 286 286 285 286 286 286 285 285 286 287 286 285 285 284 284 283 283 283 283 283 283 283 282 282 281 281 281 280 280 281 281 281 282 282 282 282 282 282 283 282 281 281 281 281 281 282 283 283 282 282 283 282 280 280 279 279 279 280 280 279 276 275 277 277 279 279 278 278 278 278 278 279 280 282 283 283 283 283 284 284
285 283 284 284 281 282 283 285 285 282 281 285 284 283 284 285 284 283 281 280 280 280 281 282 282 283 283 283 282 281 279 280 279 280 280 280 280 281 281 281 281 281 282 282 283 282 282 281 281 281 281 282 282 282 282 282 282 281 280 279 278 277 279 280 280 278 276 275 276 275 276 277 277 277 278 277 276 277 275 279 283 282 282 282 283 283
284 285 285 283 283 282 285 286 285 286 286 286 284 282 281 282 281 279 278 277 277 278 279 280 280 280 280 279 277 275 275 275 276 278 279 279 279 279 278 278 278 279 280 281 281 281 281 281 281 281 281 281 281 281 281 281 281 281 280 278 277 276 278 278 280 281 280 280 279 278 277 277 278 278 278 277 276 275 276 275 277 283 283 283 282 283
Wind_Speed
1 4 4 5 7 7 4 6 7 4 7 4 4 4 2 2 1 2 0 0 1 0 5 8 7 7 9 10 11 9 7 7 9 10 12 11 11 11 8 7 9 11 14 10 10 7 8 9 9 8 7 6 5 6 8 9 9 11 11 10 11 8 8 8 8 7 8 7 6 4 8 7 6 6 5 5 4 5 5 5 5 5 5 6 8 9
4 4 4 6 6 7 8 4 4 4 4 4 5 3 1 1 1 2 2 0 2 1 3 1 3 10 12 10 10 9 7 13 14 12 11 13 12 10 8 9 11 12 5 3 2 4 5 7 7 6 7 7 9 7 8 11 10 8 8 11 9 7 8 9 9 9 8 7 7 6 6 5 6 6 6 5 4 4 4 5 6 6 6 8 8 9
3 5 5 7 5 3 4 6 4 4 4 3 4 3 2 1 1 2 2 0 0 1 7 5 5 12 15 12 8 9 13 13 12 9 11 11 12 10 9 10 9 6 9 5 3 4 7 8 7 7 7 8 10 9 9 6 5 6 8 7 7 8 9 8 8 8 9 5 4 4 4 6 4 1 3 4 4 4 4 5 6 6 7 9 9 9
2 5 9 3 3 5 3 5 6 5 5 4 3 2 3 2 1 3 2 1 1 2 4 5 8 12 14 12 13 13 11 11 9 8 11 10 13 15 12 8 7 8 10 9 6 7 6 7 7 6 7 8 6 7 6 7 9 7 7 7 8 9 8 8 8 8 5 5 4 4 6 5 5 4 4 4 3 3 3 6 6 6 6 7 8 8
6 2 1 2 3 4 3 2 5 3 0 2 3 3 1 0 0 2 0 2 1 1 1 5 7 8 6 7 7 5 3 9 11 7 10 13 11 9 5 4 7 9 9 8 5 4 5 7 9 10 7 6 8 9 10 10 10 9 10 9 9 8 8 7 7 8 6 6 5 5 6 6 6 5 5 5 4 6 6 4 6 7 6 7 8 9
3 2 0 3 2 4 5 2 1 6 0 1 2 4 3 3 2 1 2 4 8 3 1 2 7 5 4 5 7 10 4 2 3 6 13 16 12 6 7 10 7 6 5 7 9 10 10 9 5 4 6 8 8 10 10 10 10 9 9 10 10 9 9 9 8 8 7 8 8 8 9 9 8 8 8 12 12 9 9 8 4 4 6 7 8 8
4 1 2 5 4 4 4 2 2 4 4 1 2 0 3 5 4 3 3 4 2 1 1 2 1 9 4 6 4 6 5 7 5 5 12 11 8 6 8 9 8 8 6 2 2 4 5 5 5 6 8 10 11 11 7 7 9 9 8 8 9 9 7 6 6 7 7 7 8 10 10 9 10 10 8 4 4 7 5 4 6 6 4 6 9 8
2 2 5 4 5 3 4 1 2 6 6 1 1 0 4 4 3 2 4 4 4 2 4 1 5 5 8 8 10 14 7 6 7 10 12 7 6 7 7 7 7 8 5 5 5 6 7 9 12 14 13 10 13 8 7 8 8 10 10 10 10 8 8 7 6 7 8 8 8 8 8 7 8 8 7 7 6 6 7 7 7 6 5 5 7 9
2 3 3 3 2 4 6 3 0 5 4 2 0 5 4 6 3 4 2 0 1 3 8 4 1 2 6 7 3 3 2 6 11 13 10 7 7 7 6 7 6 3 4 5 6 7 9 11 11 8 9 10 6 7 9 10 9 8 8 9 8 9 8 8 8 9 8 9 9 9 8 7 6 5 5 5 5 7 7 8 6 6 6 5 4 6
2 4 4 6 5 4 3 0 1 6 4 2 2 4 5 5 4 3 2 3 4 2 7 3 3 2 15 3 4 1 2 7 12 12 9 10 7 7 7 3 1 2 3 3 6 8 8 8 9 9 6 5 8 6 6 6 6 7 7 9 10 9 9 9 9 10 10 9 9 9 9 10 7 5 5 7 8 7 8 8 8 7 6 5 5 5
1 1 4 3 4 4 5 0 1 1 2 5 5 6 5 7 3 2 6 2 4 4 4 7 7 2 9 1 7 8 8 10 10 4 6 5 5 4 1 4 5 5 5 5 3 3 4 3 5 4 6 6 4 5 5 7 7 7 8 9 10 10 9 9 10 10 11 9 9 10 10 10 9 8 8 8 8 8 8 9 9 8 7 5 5 4
2 1 1 1 2 3 3 5 6 2 4 5 2 3 4 2 5 3 3 5 1 7 5 5 7 5 6 6 4 6 4 3 7 5 8 5 3 3 3 4 4 5 5 4 4 2 2 2 1 3 5 5 6 5 6 6 6 7 7 8 9 8 9 8 9 10 10 9 9 9 10 11 10 10 8 10 10 10 11 9 9 7 6 6 5 5
0 0 1 2 2 7 3 8 4 5 3 5 6 7 5 2 4 2 2 2 4 7 1 2 2 2 15 5 4 8 7 2 5 8 6 5 3 3 3 4 5 4 4 5 4 4 4 5 5 5 5 4 6 8 7 7 6 6 6 8 9 8 7 8 9 11 11 10 10 10 10 10 9 9 9 9 9 9 9 8 9 9 8 7 7 7
4 2 1 2 4 3 6 10 2 1 2 4 7 7 5 1 1 4 4 2 4 5 4 0 1 6 2 7 9 9 10 6 6 6 6 3 1 5 5 4 4 4 5 5 5 5 5 5 5 5 6 6 6 6 7 6 6 6 6 7 9 9 8 8 9 10 11 11 10 9 9 9 8 9 10 9 9 9 8 8 9 10 9 10 10 9
2 3 6 4 3 4 5 8 13 9 10 9 4 10 9 8 5 4 3 5 8 6 2 4 2 7 2 4 2 6 6 5 5 5 5 3 5 1 4 3 3 4 5 4 5 6 6 7 6 7 7 6 6 6 6 5 6 6 7 8 9 8 8 9 10 9 10 9 8 8 8 9 8 9 9 9 8 9 9 8 9 9 8 9 10 10
9 5 5 7 1 8 10 2 4 6 3 2 3 5 4 8 5 3 5 3 1 1 2 1 6 5 5 3 6 3 4 4 6 7 7 8 7 3 4 5 6 6 5 5 6 6 6 6 6 5 6 6 6 6 5 6 6 7 8 8 9 10 10 10 9 9 9 8 7 7 9 10 8 7 8 8 7 8 10 10 10 10 10 9 8 8
2 4 1 3 5 6 5 1 4 4 5 4 5 6 6 4 5 2 2 0 2 4 10 3 8 7 8 7 8 8 3 5 5 7 7 8 10 6 5 5 6 6 5 6 7 7 7 5 5 6 6 5 5 5 8 9 9 10 9 9 9 9 7 9 10 10 9 8 8 9 9 9 8 8 10 10 9 10 9 9 9 9 9 8 7 7
9 5 2 3 4 1 0 0 1 3 3 7 3 8 2 2 4 4 5 2 1 5 8 3 11 5 2 11 4 2 7 11 9 11 13 9 8 6 5 5 6 6 7 7 6 5 5 6 7 7 5 6 8 8 8 9 8 8 9 9 10 9 10 9 10 10 9 10 10 9 10 10 10 8 8 8 9 9 9 8 7 7 7 9 8 8
6 0 1 1 0 6 2 1 1 1 1 4 5 2 7 3 2 2 4 4 1 2 5 5 3 7 9 10 3 6 3 8 13 13 8 9 7 8 7 6 4 4 4 2 4 5 5 6 7 7 8 7 7 7 7 7 8 7 7 7 9 11 11 11 10 9 8 9 8 8 10 11 10 9 8 7 7 8 9 10 9 9 9 7 8 8
1 5 2 1 2 1 1 4 9 4 2 0 1 1 1 3 2 5 7 4 6 5 1 8 3 11 5 6 8 11 12 12 11 6 9 10 8 8 7 6 5 3 4 4 4 5 6 6 6 7 7 8 8 7 6 7 6 9 8 8 8 7 7 7 9 9 10 10 9 8 8 9 9 9 9 9 9 9 9 10 10 10 9 10 9 9
3 2 6 1 3 1 3 5 9 10 9 3 2 3 1 0 2 4 0 4 4 3 4 3 8 6 5 7 8 9 9 9 8 11 8 8 8 8 7 5 5 5 5 5 5 5 6 6 5 6 5 5 5 4 5 6 8 8 7 9 9 11 10 10 10 10 10 9 9 9 10 11 10 11 9 9 10 10 10 9 9 9 9 8 10 10
2 2 7 2 1 5 8 3 7 12 15 13 14 12 13 9 4 4 8 1 1 3 5 2 11 10 6 3 5 2 7 5 6 7 7 6 7 6 4 5 6 5 5 5 5 5 5 5 5 4 3 2 3 5 6 6 6 7 9 9 9 9 10 11 10 10 9 9 9 11 10 10 10 10 9 10 10 11 10 9 9 9 8 11 10 11
6 3 9 6 9 8 3 3 1 5 1 1 3 5 5 2 4 5 6 4 1 4 3 4 1 19 2 1 2 4 5 6 7 5 4 5 6 6 6 6 5 4 4 5 5 5 6 5 5 5 5 5 7 8 7 6 8 9 9 8 9 10 12 10 10 9 9 9 9 10 10 10 10 10 11 11 10 11 11 10 9 8 10 10 9 9
6 3 3 1 1 1 1 2 3 4 2 0 1 2 5 5 6 6 5 6 7 2 3 3 2 13 1 0 1 1 2 1 1 3 4 3 2 4 5 2 1 1 4 3 3 5 6 4 4 4 4 6 7 7 8 8 7 8 8 9 8 12 11 9 8 8 9 9 10 10 10 10 9 10 11 12 11 12 11 10 9 9 10 10 9 11
5 4 8 3 1 1 3 2 2 3 2 1 2 4 6 6 5 4 3 2 3 8 8 7 11 13 2 6 3 3 3 3 1 2 4 2 2 1 2 2 2 3 3 4 5 6 5 4 6 7 6 7 7 6 7 8 8 8 9 8 10 10 8 8 7 8 9 9 10 10 11 11 10 11 13 13 11 12 10 10 10 9 11 9 9 10
7 6 9 7 11 9 5 6 8 5 9 4 3 6 7 10 8 5 6 5 7 9 9 6 12 12 2 3 1 3 2 2 3 6 5 5 5 5 2 4 4 3 5 5 6 5 8 8 6 6 6 6 7 8 7 8 8 9 8 10 8 9 7 8 7 8 9 9 10 11 12 12 11 13 14 13 11 11 11 10 10 10 9 11 12 10
3 3 9 12 13 13 12 7 2 7 4 4 7 10 8 9 13 12 5 6 14 11 3 10 17 17 11 3 0 3 2 2 3 3 2 3 4 4 3 4 4 5 6 6 6 8 5 5 9 9 7 7 7 7 8 8 9 9 9 10 9 8 8 8 7 8 9 9 11 11 13 13 13 12 12 12 12 9 10 11 10 10 11 10 11 12
3 4 10 12 13 13 12 7 10 16 13 14 14 11 14 13 14 16 13 16 13 3 13 12 10 9 21 10 8 8 6 5 6 6 6 5 5 4 5 5 6 6 6 6 6 8 9 10 8 8 9 7 9 8 8 9 9 9 10 11 9 8 8 8 8 8 9 10 11 13 14 13 11 11 11 10 10 10 10 10 11 11 10 10 12 12
6 6 6 7 10 11 8 6 10 10 12 13 15 14 15 16 14 18 20 21 11 11 17 18 11 15 20 10 12 13 9 11 9 8 6 5 3 4 6 8 8 8 8 8 10 9 8 10 10 10 8 8 6 8 10 9 9 8 8 9 8 6 10 7 8 10 10 10 12 15 12 9 9 8 9 9 10 11 11 10 10 10 10 11 11 10
4 5 6 9 11 11 12 9 7 12 5 3 9 14 17 19 22 23 22 19 16 12 15 20 11 14 19 5 11 11 9 6 4 3 1 2 5 6 6 8 8 8 8 9 10 10 10 10 8 8 7 7 7 9 8 8 9 9 9 10 8 8 8 7 10 10 10 11 14 12 8 9 8 9 8 10 12 12 11 10 9 10 11 12 12 10
6 6 10 4 5 8 13 11 5 7 6 6 7 10 15 18 21 23 20 16 13 12 12 12 13 16 16 4 4 9 5 1 2 5 6 7 6 5 6 7 7 7 9 9 9 9 8 9 9 8 7 7 7 8 8 8 8 7 7 10 9 10 7 7 9 10 11 14 13 9 8 8 10 8 10 12 10 10 11 11 9 10 11 11 11 11
5 4 2 4 6 9 9 9 5 4 5 7 9 13 17 17 12 6 9 9 9 14 15 13 15 20 11 8 8 4 3 6 7 6 5 6 6 6 8 7 4 5 6 8 8 8 8 8 8 8 8 8 7 7 6 8 7 5 9 9 9 8 5 8 10 11 12 12 9 9 10 10 9 10 11 10 12 12 10 9 9 11 12 12 11 11
6 5 4 4 9 12 14 4 6 6 3 9 16 23 19 4 7 8 11 13 16 15 13 13 19 17 11 5 5 5 3 5 7 7 4 2 4 5 4 5 4 5 5 5 6 6 6 6 6 6 7 6 7 7 8 6 5 7 9 8 7 4 7 9 10 10 10 10 10 10 10 9 10 11 11 12 11 9 9 10 10 12 13 14 13 10
5 7 6 5 10 9 8 6 7 7 13 17 19 12 10 16 13 11 13 15 12 10 11 14 15 12 6 4 7 8 7 6 7 4 6 3 3 5 5 4 4 5 5 5 5 5 5 5 5 5 5 5 7 7 7 6 6 8 6 6 5 6 8 8 9 9 11 10 10 11 9 8 9 10 11 9 8 9 10 11 14 13 11 10 10 12
9 8 7 4 6 9 3 9 6 15 17 16 2 3 7 9 15 18 15 13 12 12 10 11 13 15 14 11 9 8 8 4 6 9 7 5 5 5 4 5 6 6 5 5 7 7 6 6 6 8 10 9 8 8 8 9 5 5 5 4 5 7 7 7 8 9 10 11 11 9 9 10 10 10 9 9 9 10 11 12 12 12 11 10 11 12
8 10 4 2 3 3 3 8 11 11 5 3 4 5 4 6 8 8 10 13 12 10 13 15 18 17 14 12 9 7 5 3 8 6 4 4 4 4 5 5 5 5 7 6 5 6 6 7 7 7 9 8 7 7 6 7 7 6 7 4 5 5 5 6 7 10 10 11 11 11 10 10 10 10 9 9 9 10 12 12 13 13 10 9 9 9
8 4 5 7 5 13 10 12 16 4 11 8 7 3 7 7 8 10 9 10 8 9 13 16 17 16 12 8 5 4 1 5 5 2 4 6 5 2 2 2 2 4 4 5 5 7 7 6 6 7 7 8 8 8 8 8 7 6 6 5 5 4 5 6 9 11 10 10 10 10 9 9 10 10 10 10 11 12 13 13 12 11 9 10 10 10
7 11 5 10 6 8 10 11 6 7 13 19 12 2 8 10 12 11 9 8 4 3 2 4 8 2 2 4 4 5 2 1 1 2 4 6 7 8 3 1 3 4 4 5 5 4 5 6 8 7 6 8 10 9 8 8 8 6 5 6 5 5 6 7 10 10 9 10 10 9 8 9 10 11 11 11 14 15 14 12 10 11 10 12 12 13
5 3 4 12 4 7 9 10 11 11 12 5 3 9 10 11 13 6 6 10 1 1 3 4 7 4 3 3 5 1 3 3 3 1 5 7 8 6 8 8 6 5 5 5 6 9 10 10 7 8 8 7 8 9 8 9 8 7 7 6 5 5 7 9 10 9 10 11 9 7 8 9 10 11 11 13 14 13 13 13 13 10 9 11 10 11
11 8 5 9 9 7 8 10 10 6 6 2 2 1 2 1 8 9 10 7 3 0 0 3 6 4 2 3 2 9 4 4 1 3 4 5 4 4 4 7 9 9 8 6 5 4 5 7 9 11 10 10 9 7 7 7 7 7 7 8 5 7 9 9 10 10 8 8 7 7 8 8 10 11 12 13 12 11 12 9 8 10 10 9 9 9
10 7 11 15 13 14 15 10 5 5 3 3 3 1 4 5 7 11 12 5 4 3 1 3 5 3 2 4 4 5 1 2 1 2 4 5 4 5 4 3 4 5 7 7 8 7 6 7 6 7 8 9 10 9 8 7 7 7 7 6 6 9 10 8 8 8 8 8 8 8 9 8 10 12 12 11 11 10 10 9 10 10 10 10 9 9
6 5 2 8 13 13 12 13 9 2 3 4 0 3 3 6 5 9 1 1 6 3 1 4 5 3 3 3 2 2 2 1 2 3 3 3 3 4 4 4 3 4 3 3 6 5 7 8 9 9 9 6 7 7 7 8 8 7 7 6 8 9 8 7 8 8 8 8 8 8 8 9 9 10 10 9 9 9 10 9 9 10 10 9 9 11
13 11 10 11 6 3 4 8 5 8 2 3 1 2 2 3 2 5 6 1 2 3 3 2 4 3 3 2 2 1 2 1 2 2 3 3 2 3 4 6 7 8 9 10 10 8 5 5 7 10 11 11 8 7 7 7 8 8 7 8 10 8 7 8 8 8 8 8 8 8 8 8 9 9 7 8 9 10 10 8 9 10 9 10 10 11
3 5 3 5 4 7 9 10 6 2 2 1 3 7 2 3 6 7 6 6 2 3 3 1 0 1 2 1 1 1 1 1 1 2 3 3 2 2 2 4 5 6 7 7 5 7 8 9 9 9 10 10 9 8 7 8 11 10 10 11 9 7 7 7 8 7 7 7 7 7 7 7 8 8 7 8 8 9 9 8 8 9 9 9 10 9
5 6 1 6 1 5 4 2 1 2 1 1 5 5 7 5 6 6 5 6 6 2 2 5 1 1 2 2 2 1 2 2 3 6 5 5 3 3 4 4 4 5 6 7 8 9 6 7 9 10 11 11 9 6 5 5 8 13 13 11 7 9 9 8 7 7 6 7 6 6 6 5 5 6 6 6 8 8 8 7 7 8 7 8 9 9
3 2 1 5 1 2 4 2 5 1 2 5 4 5 7 4 2 4 6 6 2 3 4 4 2 1 1 0 1 1 0 2 4 5 5 6 8 7 6 5 4 5 5 5 7 8 7 8 8 8 9 12 9 9 6 5 4 10 13 11 10 9 9 8 7 7 6 6 5 6 5 5 4 4 4 5 6 7 7 9 9 9 8 8 8 8
1 1 1 1 1 4 3 3 5 7 5 6 7 3 4 4 3 3 5 4 4 3 3 1 1 0 1 3 2 1 2 1 3 4 4 5 7 7 7 7 6 5 6 8 8 8 8 7 9 10 10 13 11 9 9 8 6 7 8 10 9 9 9 8 7 7 6 6 6 4 2 4 4 3 2 3 3 4 3 5 6 7 7 8 9 9
3 2 1 1 2 6 2 9 3 1 2 3 7 7 6 5 7 6 6 6 6 4 4 3 2 3 1 3 0 1 1 3 4 5 5 5 5 6 7 9 10 9 7 5 6 6 7 7 8 10 10 12 12 10 10 10 10 9 9 8 7 7 8 9 8 7 5 5 4 3 2 3 3 2 2 3 4 4 4 4 6 7 9 9 9 9
2 5 4 4 4 0 4 4 5 5 3 2 5 4 4 7 9 8 7 7 5 6 4 3 3 3 4 4 4 3 3 2 3 4 4 5 6 7 8 9 8 8 9 10 9 7 8 7 8 9 10 12 11 10 11 11 10 10 10 9 7 6 7 9 8 8 5 3 1 2 1 1 1 1 2 2 2 1 1 4 6 7 7 6 6 8
4 6 2 4 3 5 8 9 13 9 5 4 3 3 4 4 8 8 6 7 6 6 3 4 4 4 5 6 6 6 6 5 6 6 5 4 5 7 9 10 10 10 10 8 8 7 8 8 7 10 11 10 9 9 11 12 11 9 8 7 6 5 6 8 8 8 7 2 2 1 1 1 1 1 2 2 3 1 1 4 1 3 4 5 3 5
4 5 4 4 5 5 5 7 4 5 7 5 6 3 4 3 7 9 8 6 5 5 3 4 4 5 8 9 10 9 8 7 8 7 7 7 8 8 8 10 12 12 12 12 12 13 13 13 13 13 14 14 12 12 10 11 11 10 9 7 6 5 5 6 7 7 8 6 5 6 5 4 4 4 3 2 2 1 2 1 1 1 4 4 4 5
Wind_Direction
101 99 162 183 209 208 223 179 179 196 148 117 90 105 155 155 299 314 326 270 117 57 234 232 250 256 261 257 263 256 258 258 254 251 247 249 248 246 242 234 232 230 232 231 219 206 191 188 189 180 163 161 154 166 169 169 173 173 173 168 183 179 168 165 167 175 166 160 157 154 176 168 167 157 144 140 144 179 188 180 177 175 171 172 164 163
66 89 245 217 200 197 214 177 129 68 61 121 109 75 346 62 294 264 207 310 354 121 290 269 278 271 258 250 251 260 264 256 247 242 242 247 250 248 237 236 232 235 268 255 209 178 182 191 183 164 158 155 161 187 178 183 182 174 170 180 176 171 177 180 182 180 182 187 184 163 170 146 156 156 157 154 153 168 183 182 180 179 173 169 166 162
55 165 241 224 208 113 89 97 96 116 96 49 117 131 67 306 191 345 19 26 318 81 261 291 301 280 279 274 249 232 234 242 241 233 243 241 252 249 236 232 241 256 257 255 240 185 194 186 176 170 171 183 181 169 178 177 165 176 182 184 174 182 182 187 183 179 191 178 161 150 152 148 125 62 114 136 148 159 181 186 179 178 175 168 167 165
75 292 242 241 132 82 38 71 78 61 67 105 65 67 191 248 61 290 301 335 266 170 279 316 315 283 280 272 264 248 230 248 249 242 247 234 245 248 242 227 226 237 246 246 216 202 191 180 175 169 180 181 164 167 174 177 182 180 186 187 185 189 189 186 189 188 180 164 133 115 127 121 123 146 111 109 135 160 178 190 176 181 179 172 164 165
185 234 288 108 85 121 122 59 88 70 114 338 128 125 195 255 113 161 230 278 314 344 35 324 295 297 283 295 311 301 252 227 247 251 262 260 243 257 295 277 215 225 225 234 221 198 168 171 188 189 177 161 180 186 187 183 186 187 187 184 184 188 192 190 181 178 165 148 122 107 98 104 93 91 142 143 183 190 190 181 177 184 178 174 166 165
283 275 49 79 70 71 99 75 133 121 56 333 246 178 189 163 120 14 359 41 16 342 324 67 345 309 284 273 257 275 339 276 255 211 245 248 254 260 264 258 253 249 233 206 201 192 187 184 164 158 171 183 193 197 198 190 190 184 184 182 183 184 186 187 182 175 164 174 169 159 156 168 176 180 180 191 188 183 186 187 160 160 183 175 170 170
197 13 116 163 117 86 80 126 226 119 167 90 259 188 169 128 100 72 18 57 354 234 279 84 77 274 309 281 282 283 264 268 303 224 243 247 254 256 247 251 252 242 241 226 199 146 149 163 171 193 194 196 198 207 186 187 190 190 183 184 183 186 185 180 175 172 167 177 185 193 193 191 190 190 201 180 159 175 174 163 174 172 184 186 170 173
74 54 76 67 86 92 101 101 243 138 113 226 248 207 99 83 84 120 99 115 226 248 301 337 156 252 291 267 231 237 249 279 279 266 255 258 256 249 243 246 247 241 225 184 180 176 180 180 186 196 202 197 206 190 180 189 189 190 186 182 182 180 179 180 170 170 180 180 184 194 201 200 203 204 192 177 169 165 164 172 178 172 184 184 169 168
143 158 138 119 82 93 168 204 244 127 125 210 236 147 106 126 143 115 92 146 229 22 292 335 107 296 256 264 293 221 225 256 256 252 260 271 263 252 252 249 253 271 221 171 149 174 186 194 206 206 203 211 194 183 190 191 192 188 182 180 175 178 175 179 173 172 185 184 184 192 197 203 207 194 164 159 158 165 172 172 173 178 181 180 168 160
354 163 210 147 131 187 227 270 250 157 93 251 169 75 75 68 68 96 94 64 333 41 270 208 186 209 282 185 216 31 187 237 241 247 255 257 259 273 274 250 106 92 88 134 169 183 195 200 205 208 206 194 202 195 191 190 182 184 176 180 179 183 178 176 177 178 185 185 180 191 198 201 197 176 162 168 170 174 172 175 176 176 177 178 172 169
249 332 157 104 181 188 146 107 96 96 138 123 73 63 22 37 35 17 64 84 45 285 254 203 205 159 291 317 190 141 201 204 230 266 273 283 293 277 299 167 141 124 126 129 157 199 203 218 210 185 195 205 196 193 187 189 189 183 182 181 185 185 177 178 180 179 186 186 188 194 197 201 196 183 172 177 178 171 175 179 178 180 178 172 174 170
8 357 105 294 50 113 95 73 4 50 87 108 104 117 49 342 11 30 349 35 120 264 261 234 204 158 216 293 299 245 277 251 175 204 239 260 284 257 190 184 157 147 151 152 123 126 141 136 179 175 202 197 197 185 195 195 189 187 186 180 184 185 181 179 179 182 187 188 195 198 197 202 200 188 185 188 186 184 182 179 174 173 166 176 178 179
359 234 265 22 256 135 103 86 346 12 2 79 87 63 122 253 33 320 22 298 201 223 249 306 221 5 244 232 275 287 279 279 205 194 213 212 202 249 223 190 176 172 155 171 164 154 175 177 182 197 211 200 198 200 196 195 190 187 186 184 184 191 181 180 179 186 189 191 195 196 200 205 199 197 190 190 191 188 186 178 172 171 180 172 180 192
270 298 30 272 359 241 137 130 177 47 256 118 141 139 107 151 153 243 266 235 304 295 262 15 84 254 271 291 224 240 257 225 206 209 207 178 221 218 209 202 197 195 188 192 191 196 194 197 206 206 205 208 207 204 199 193 187 188 187 187 191 194 183 181 184 189 192 199 197 196 199 202 198 201 191 193 190 188 189 182 180 179 182 182 190 183
124 311 262 143 248 183 184 181 177 170 166 204 124 155 180 153 165 205 182 198 222 219 290 284 87 233 113 241 263 250 277 290 247 245 255 282 242 206 187 169 179 208 229 206 208 205 205 212 206 207 208 211 209 205 198 191 193 187 193 190 195 192 192 186 190 191 198 200 200 199 201 203 201 202 196 197 190 184 189 190 184 184 185 188 187 188
207 205 259 196 268 156 183 214 119 93 58 247 168 85 95 224 132 174 202 157 227 342 343 230 214 189 178 261 297 245 298 315 296 289 305 293 278 171 130 164 187 213 220 214 222 229 231 221 216 215 218 216 212 206 198 196 192 195 201 196 199 197 191 193 193 199 198 201 199 201 200 204 198 200 197 196 191 192 191 189 190 188 189 194 186 186
72 256 326 335 42 175 183 121 180 148 196 224 119 207 206 174 108 92 9 271 100 38 258 163 293 273 299 294 247 262 306 284 298 297 297 267 260 249 213 189 208 216 219 220 223 222 226 227 228 218 212 216 213 206 204 202 198 199 197 196 201 203 195 195 198 198 198 199 198 204 203 202 197 195 196 195 192 190 192 192 194 188 189 186 183 178
152 233 337 80 200 311 196 139 68 20 151 105 190 238 227 100 123 139 215 341 108 206 267 128 234 289 30 287 331 82 258 270 280 264 251 251 264 275 242 206 221 213 214 220 220 225 216 210 211 211 216 212 208 207 206 209 205 205 202 197 198 198 198 201 197 199 198 199 202 204 206 207 204 198 197 191 190 188 187 193 191 187 182 188 180 175
122 147 274 325 145 279 333 132 321 335 61 147 188 209 120 252 242 294 93 246 171 267 268 280 247 258 188 245 311 306 247 250 245 247 257 263 269 258 257 248 241 266 284 252 230 226 222 216 211 202 208 219 220 214 208 206 203 207 209 206 202 203 202 196 197 197 202 200 203 204 204 204 205 200 196 193 187 185 190 191 191 190 189 172 167 168
119 175 279 333 122 311 20 115 202 183 333 35 62 115 170 102 172 144 199 173 129 244 59 285 97 261 174 217 185 227 232 237 250 253 246 239 243 250 255 261 255 244 225 227 240 231 222 222 210 196 200 211 217 217 213 205 202 209 207 204 210 213 205 197 196 194 201 201 203 206 204 206 204 201 200 194 187 191 196 193 189 190 182 181 171 180
204 169 230 269 300 76 187 199 209 157 166 200 141 227 197 20 230 119 181 148 164 177 183 256 300 259 255 202 185 213 233 227 215 232 237 239 230 234 245 244 248 238 222 218 221 235 235 237 231 218 211 219 230 226 212 204 209 212 206 210 205 202 204 205 201 196 203 195 205 202 204 203 202 205 201 201 198 197 199 196 193 192 186 164 183 176
150 181 180 141 25 227 241 248 196 183 184 178 177 197 182 138 159 150 259 27 115 126 235 155 260 274 245 203 184 205 258 227 224 216 237 245 250 244 260 251 219 224 241 221 230 232 244 248 247 247 230 228 220 234 223 217 214 215 213 212 207 210 212 205 204 201 198 198 200 203 203 205 202 204 204 206 203 205 201 197 194 187 172 183 186 180
158 138 112 185 205 205 218 298 283 201 270 191 159 238 164 168 107 150 200 263 348 240 146 184 81 267 106 324 344 249 192 208 202 186 233 253 250 255 242 241 227 203 204 222 239 248 244 235 231 221 196 203 217 219 218 220 216 218 219 213 212 209 218 207 207 200 197 198 201 204 203 202 203 198 203 206 206 207 202 199 195 184 184 188 183 188
99 94 101 300 330 337 339 322 21 36 105 293 312 110 137 191 174 175 170 186 170 253 240 246 213 266 324 324 315 329 285 168 55 134 158 200 284 265 268 280 295 264 262 282 281 267 256 247 252 229 217 228 230 226 224 223 224 223 222 219 213 219 217 208 204 198 198 200 204 201 201 205 200 199 202 206 209 208 201 194 193 185 191 190 179 186
159 253 146 138 30 345 350 341 360 336 45 161 184 208 186 186 177 185 97 104 228 214 197 157 237 255 308 339 333 2 1 323 252 243 177 150 210 255 286 269 268 284 323 297 265 254 268 268 242 231 223 226 231 232 227 225 225 222 227 219 220 225 214 211 202 199 202 200 203 203 204 206 199 202 206 209 207 209 201 196 190 187 191 182 186 189
165 173 143 167 193 196 218 203 210 215 196 214 230 204 193 167 176 125 230 201 223 237 181 203 251 254 267 355 5 343 350 320 312 337 354 33 6 333 301 250 257 269 255 250 254 263 248 239 253 260 242 236 235 228 227 229 226 227 228 227 221 223 212 212 199 204 200 202 205 209 210 208 203 207 207 209 210 207 201 198 194 190 193 186 185 184
172 191 180 186 193 207 212 209 216 103 81 168 226 181 197 195 186 192 171 197 217 227 156 224 233 259 257 242 329 278 334 262 289 316 295 319 297 267 279 313 301 272 257 258 253 251 272 281 256 253 252 240 239 230 229 228 229 228 228 234 224 219 211 206 198 204 204 206 210 213 216 210 211 207 207 207 208 203 202 201 195 190 194 190 187 186
84 186 213 201 209 213 207 195 179 159 177 199 196 203 200 189 191 190 191 222 211 167 248 235 230 237 256 224 234 249 270 281 276 275 295 320 300 290 290 299 295 283 276 274 291 300 288 276 276 261 252 249 243 240 240 235 232 228 224 232 227 216 212 204 196 205 209 207 215 220 220 215 211 210 209 204 203 206 207 204 198 195 192 187 194 195
153 195 224 184 232 234 226 195 169 182 186 189 196 195 196 202 197 199 215 222 191 190 225 243 198 222 248 225 204 232 219 237 243 253 243 235 271 300 299 294 287 290 295 298 288 282 275 271 268 272 264 254 258 252 247 246 245 242 242 241 235 214 220 196 193 209 208 210 219 225 221 215 215 213 207 201 202 207 208 207 205 195 190 194 200 199
143 235 209 187 215 230 240 220 187 184 199 185 205 206 203 198 203 207 215 219 209 212 228 243 234 227 246 208 190 224 218 196 231 223 208 257 260 262 269 268 270 277 281 280 281 281 278 273 280 284 290 280 258 258 258 254 249 242 237 242 236 224 223 178 208 211 210 216 224 226 216 215 212 210 204 204 208 208 205 205 205 201 196 198 202 200
163 234 194 170 202 238 240 238 163 195 175 209 224 226 222 215 211 208 212 220 220 239 248 260 265 261 248 157 193 250 275 247 267 292 279 277 282 261 253 259 265 271 279 283 283 288 300 306 302 303 306 295 286 271 265 259 257 250 244 243 237 230 212 186 211 214 213 222 226 220 211 211 213 203 208 211 209 208 204 203 200 204 205 201 200 202
166 264 28 109 203 242 238 233 180 145 182 214 227 229 227 219 218 215 221 218 202 217 228 241 255 254 255 119 234 231 195 262 264 253 262 265 264 277 270 277 314 309 293 294 301 310 315 316 320 325 324 318 307 291 275 270 263 254 248 245 239 230 182 200 213 216 221 226 223 215 213 211 206 205 213 208 211 207 204 199 200 206 206 202 200 204
176 155 164 152 210 233 243 190 140 153 168 248 243 231 222 175 197 204 224 219 215 205 212 220 240 248 251 148 183 249 190 240 276 268 271 293 267 258 305 339 334 332 333 326 325 329 333 334 327 319 318 317 317 316 297 275 269 254 252 250 248 194 198 212 216 223 229 229 223 222 218 210 207 210 211 213 210 203 199 201 204 208 207 206 200 193
150 181 202 148 221 229 243 118 139 140 219 230 237 240 207 209 170 189 214 216 222 194 212 218 240 255 265 197 185 233 244 226 246 10 46 23 352 19 22 13 360 348 346 352 353 345 335 334 328 312 293 285 293 297 295 294 261 264 261 248 216 199 216 211 222 220 230 230 227 225 220 215 213 215 217 212 206 202 203 203 210 211 211 207 196 199
177 182 203 161 221 231 102 118 166 216 230 240 14 120 196 187 171 201 216 214 212 217 234 259 261 258 250 246 229 224 230 242 68 84 47 35 57 57 23 5 6 2 348 352 351 346 340 334 329 334 335 335 326 318 326 318 295 283 283 239 222 222 217 217 220 223 228 229 228 221 218 214 213 217 213 207 203 204 208 210 214 210 209 206 203 199
174 187 141 210 133 53 130 176 227 224 242 338 277 246 151 139 177 181 237 238 221 200 204 227 237 243 251 253 248 234 243 118 102 90 79 48 66 65 40 9 349 349 349 342 337 328 335 333 324 313 312 311 320 323 326 313 314 309 281 244 230 233 227 226 226 232 229 232 227 222 219 213 214 215 211 206 204 207 212 214 212 211 206 207 212 212
174 133 180 217 180 214 208 215 232 335 309 281 267 220 145 159 155 174 227 244 224 220 220 231 238 246 255 273 297 328 46 114 93 146 55 21 11 82 97 348 335 325 313 315 326 320 318 314 316 316 314 319 325 332 332 323 319 300 287 273 253 236 237 223 234 238 237 239 235 228 220 213 212 213 208 205 205 210 214 212 212 212 200 206 207 206
174 184 191 201 223 202 218 236 240 230 241 246 235 152 183 170 173 182 198 255 34 349 314 231 246 309 7 341 342 323 312 210 176 207 350 7 354 346 2 29 333 335 334 321 316 306 316 324 325 326 339 327 326 324 323 322 314 305 284 270 262 243 241 230 240 241 241 241 237 230 220 213 209 212 208 204 209 211 214 212 211 210 198 204 203 208
224 209 171 204 191 178 213 224 224 227 236 256 243 183 189 178 180 149 165 229 153 14 334 104 101 79 76 30 327 319 137 198 222 247 321 357 345 346 342 338 345 342 339 339 338 336 336 333 328 316 322 325 322 323 325 317 314 311 297 288 276 249 250 245 248 246 241 243 238 229 218 214 213 214 210 211 214 211 211 208 209 204 196 207 206 210
207 210 182 212 208 204 204 220 226 219 252 244 239 273 252 110 112 123 201 223 177 295 301 95 98 99 53 12 26 57 104 184 214 268 308 329 316 297 325 330 337 340 335 340 339 346 309 313 332 336 336 328 314 308 312 313 318 314 303 297 292 276 263 260 254 254 255 254 241 227 219 214 215 217 214 216 215 210 212 205 200 198 200 205 204 206
200 202 204 213 214 220 222 241 265 273 267 234 239 247 108 113 116 173 206 180 177 197 194 137 118 110 119 60 42 101 111 129 202 267 307 314 342 327 326 317 305 307 317 331 329 337 348 336 331 316 312 308 313 321 320 322 320 309 301 295 296 281 275 276 277 271 261 252 243 232 224 219 215 219 220 216 213 207 206 198 199 195 198 201 203 204
202 195 221 210 222 223 221 230 232 305 240 200 230 161 230 99 172 209 163 144 144 157 159 137 127 146 116 122 131 156 202 267 310 304 289 284 272 277 283 278 274 277 267 280 298 332 342 337 328 324 318 306 302 306 310 315 315 304 304 302 287 279 286 292 284 276 266 254 246 240 231 225 225 221 221 214 204 203 208 204 197 197 196 198 198 201
182 176 186 197 190 210 182 224 205 216 257 93 156 49 351 168 241 128 132 236 183 149 99 93 122 162 144 159 203 211 250 265 226 227 229 252 262 293 312 329 339 338 340 342 342 341 347 331 330 325 320 321 328 326 319 321 312 309 305 297 287 293 294 287 284 276 266 259 254 247 239 233 224 221 213 210 204 204 208 196 195 197 194 194 195 198
195 172 184 211 174 189 190 211 210 194 137 267 150 179 195 139 138 153 136 128 188 143 143 101 339 168 148 145 187 270 254 297 302 159 194 206 213 239 268 311 321 331 334 331 321 319 337 333 327 326 319 317 322 330 329 336 320 315 309 295 295 296 293 290 283 278 272 265 260 257 251 239 231 223 211 206 197 203 205 197 198 196 197 194 194 198
220 188 193 184 200 158 195 169 161 211 114 21 127 117 127 126 133 169 126 132 141 170 186 126 177 308 316 342 352 71 338 12 332 326 347 329 337 348 356 338 328 325 326 322 321 321 322 323 318 316 316 318 322 323 321 323 318 311 309 304 312 304 301 295 291 287 279 275 271 266 261 249 239 224 213 205 192 197 200 195 186 196 201 194 200 199
348 116 112 111 215 94 35 77 134 65 93 81 72 118 135 133 95 119 128 120 139 158 161 149 181 207 290 249 30 345 234 317 347 337 339 340 343 342 347 349 349 339 321 320 322 327 319 317 315 314 316 316 322 324 323 313 304 306 302 308 308 301 298 298 298 293 282 283 283 277 274 259 256 239 224 214 206 205 200 189 189 195 193 194 201 202
299 73 94 154 240 123 197 138 138 145 133 134 122 83 65 98 132 125 95 99 130 108 72 46 150 200 187 146 182 226 290 323 348 333 342 343 347 342 341 337 337 338 332 330 320 318 323 325 321 322 323 319 321 326 322 318 303 280 289 300 302 303 302 303 297 291 292 288 288 293 285 246 248 242 231 219 223 217 202 187 193 195 194 196 200 201
286 166 82 186 164 172 220 159 189 85 155 158 138 132 122 101 86 72 89 94 89 80 76 67 108 52 90 58 120 151 14 16 27 357 346 342 335 340 338 338 336 334 334 322 313 321 316 322 319 319 323 318 319 323 319 317 314 311 305 300 301 304 307 301 293 287 287 287 291 289 281 261 251 225 226 225 202 198 194 200 199 202 201 198 199 201
186 107 203 174 164 172 46 109 132 102 74 80 62 61 96 124 113 93 85 86 92 96 90 73 77 89 76 70 64 84 81 31 42 6 351 334 339 345 341 335 329 326 325 334 333 334 326 319 320 315 316 312 315 319 317 315 313 316 314 305 305 306 307 295 294 291 288 283 252 261 275 228 244 220 203 223 246 266 256 219 212 210 221 224 215 212
101 173 155 91 124 180 188 182 159 136 201 179 112 94 84 88 104 104 90 71 58 59 53 85 78 65 68 54 50 45 41 14 9 5 355 346 345 339 341 337 334 331 330 329 325 326 324 325 322 319 316 310 312 314 314 313 313 312 308 302 299 306 300 293 293 291 280 250 180 189 156 148 160 155 167 177 184 180 319 355 229 279 248 237 232 218
153 199 137 153 173 224 241 197 183 76 70 84 125 104 72 84 101 89 79 78 55 41 25 60 70 57 53 51 43 39 27 12 354 353 358 358 356 350 343 340 336 334 334 337 335 338 340 335 334 331 328 326 325 318 316 313 312 315 313 309 298 299 288 291 289 280 273 257 215 183 169 167 165 165 151 149 161 174 189 311 345 211 204 198 214 209